Regional Weather Roundup
Issued by NWS Northern Indiana

Home | Current Version | Previous Version | Graphics & Text | Print | Product List | Glossary On
Versions: 1 2 3 4 5 6 7 8 9 10 11 12 13 14 15 16 17 18 19 20 21 22 23 24 25 26 27 28 29 30 31 32 33 34 35 36 37 38 39 40 41 42 43 44 45 46 47 48 49 50
000
ASUS43 KIWX 110010
RWRIWX

KIWX WEATHER ROUNDUP
NATIONAL WEATHER SERVICE NORTHERN INDIANA
800 PM EDT THU JUL 10 2014

NOTE: "FAIR" INDICATES FEW OR NO CLOUDS BELOW 12,000 FEET WITH NO
SIGNIFICANT WEATHER AND/OR OBSTRUCTIONS TO VISIBILITY.

* THESE STATIONS ARE NOT UNDER NWS QUALITY CONTROL. THEY ALSO MAY NOT
  REPORT WEATHER SUCH AS PRECIPITATION OR FOG.

INZ001>027-110100-
NORTHERN INDIANA

CITY           SKY/WX    TMP DP  RH WIND       PRES   REMARKS
GARY*          SUNNY     73  48  40 E7        30.16R
VALPARAISO     SUNNY     73  51  46 NE5       30.16S
6HR MIN TEMP:  73; 6HR MAX TEMP:  77;

MICHIGAN CITY* SUNNY     70  46  43 NE3       30.16R
LAPORTE*       SUNNY     71  51  48 N5        30.16S
6HR MIN TEMP:  71; 6HR MAX TEMP:  74;

KNOX*          SUNNY     73  53  49 N5        30.15R
6HR MIN TEMP:  49; 6HR MAX TEMP:  86;

SOUTH BEND     SUNNY     74  53  48 N9        30.15S
6HR MIN TEMP:  73; 6HR MAX TEMP:  77;

ELKHART*       SUNNY     73  48  40 NE6       30.16
GOSHEN         SUNNY     75  52  44 NE6       30.15R
6HR MIN TEMP:  72; 6HR MAX TEMP:  77;

MONTICELLO*    SUNNY     74  57  54 NE3       30.14S
6HR MIN TEMP:  73; 6HR MAX TEMP:  77;

LOGANSPORT*    MOSUNNY   73  50  43 NE3       30.15S
ROCHESTER*     MOSUNNY   77  50  38 CALM      30.15S
WARSAW*        MOSUNNY   73  52  46 NE3       30.15R
ANGOLA*        SUNNY     73  55  53 N3        30.15S
FORT WAYNE     MOSUNNY   75  51  43 NW5       30.15R
6HR MIN TEMP:  74; 6HR MAX TEMP:  78;

HUNTINGTON*    SUNNY     73  53  49 N5        30.15R
6HR MIN TEMP:  72; 6HR MAX TEMP:  76;

PERU/GRISSOM   SUNNY     74  55  51 NE7       30.15R
6HR MIN TEMP:  74; 6HR MAX TEMP:  77;

MARION*        SUNNY     73  50  43 N3        30.15S
6HR MIN TEMP:  32; 6HR MAX TEMP:  89;


$$
INZ028>050-110100-
CENTRAL INDIANA

CITY           SKY/WX    TMP DP  RH WIND       PRES   REMARKS
LAFAYETTE      SUNNY     75  53  46 NE6       30.14R
6HR MIN TEMP:  74; 6HR MAX TEMP:  78;

KOKOMO*        SUNNY     75  54  46 NE6       30.15R
6HR MIN TEMP:  75; 6HR MAX TEMP:  79;

MUNCIE*        SUNNY     75  53  46 N7        30.14R
6HR MIN TEMP:  75; 6HR MAX TEMP:  78;

INDIANAPOLIS   MOSUNNY   75  52  44 N12       30.12S
6HR MIN TEMP:  75; 6HR MAX TEMP:  80;


$$
MIZ043>046-050>051-056>058-064>065-071>073-077>080-110100-
SOUTHWEST LOWER MICHIGAN

CITY           SKY/WX    TMP DP  RH WIND       PRES   REMARKS
BATTLE CREEK   SUNNY     74  53  48 N6        30.17R
6HR MIN TEMP:  71; 6HR MAX TEMP:  76;

BENTON HARBOR  SUNNY     69  53  56 N5        30.16S
6HR MIN TEMP:  68; 6HR MAX TEMP:  72;

COLDWATER*     SUNNY     73  56  55 NW3       30.16R
6HR MIN TEMP:  71; 6HR MAX TEMP:  76;

HILLSDALE*     SUNNY     73  55  52 CALM      30.16R
6HR MIN TEMP:  71; 6HR MAX TEMP:  75;

HOLLAND        SUNNY     72  53  51 W6        30.17R
6HR MIN TEMP:  72; 6HR MAX TEMP:  77;

GRAND RAPIDS   MOSUNNY   74  54  49 E5        30.16R
6HR MIN TEMP:  72; 6HR MAX TEMP:  77;

KALAMAZOO      SUNNY     74  52  46 CALM      30.16R
6HR MIN TEMP:  70; 6HR MAX TEMP:  77;

STURGIS*         N/A     72  55  56 N5        30.16R
THREE RIVERS*  FAIR      73  55  53 CALM      30.16R

$$
OHZ001>008-015>018-024>025-110100-
NORTHWEST OHIO

CITY           SKY/WX    TMP DP  RH WIND       PRES   REMARKS
WAUSEON*       FAIR      75  55  50 N3        30.14R
DEFIANCE       SUNNY     76  51  41 NW3       30.14R
6HR MIN TEMP:  76; 6HR MAX TEMP:  80;

FINDLAY        SUNNY     76  53  44 W5        30.12R
6HR MIN TEMP:  75; 6HR MAX TEMP:  80;

TOLEDO EXPRESS SUNNY     75  57  53 NE7       30.13R
6HR MIN TEMP:  74; 6HR MAX TEMP:  79;

TOLEDO METCALF SUNNY     74  56  53 E8        30.14R
6HR MIN TEMP:  74; 6HR MAX TEMP:  79;

LIMA           SUNNY     76  52  43 NW5       30.14R

$$
&&



USA.gov is the U.S. government's official web portal to all federal, state and local government web resources and services.